******** Week 354 almanac for PRN-1 ******** ID: 1 Health: 0 Eccentricity: 0.001407623291 Time of Applicability(s): 503808 Orbital Inclination(rad): 0.9584347915 Rate of Right Ascen(r/s): -7.886042771e-09 SQRT(A) (m 1/2): 5153.584961 Right Ascen at Week(rad): -2.396693681 Argument of Perigee(rad): -0.007576651693 Mean Anom(rad): 0.9367199756 Af0(s): 0.000269061731 Af1(s/s): -3.637979e-12 week: 354 ******** Week 354 almanac for PRN-2 ******** ID: 2 Health: 0 Eccentricity: 0.01697587967 Time of Applicability(s): 503808 Orbital Inclination(rad): 0.9639175744 Rate of Right Ascen(r/s): -7.828897533e-09 SQRT(A) (m 1/2): 5153.562988 Right Ascen at Week(rad): -2.559369797 Argument of Perigee(rad): -0.8430831068 Mean Anom(rad): 2.330140412 Af0(s): 1.808818359e-05 Af1(s/s): 7.275958e-12 week: 354 ******** Week 354 almanac for PRN-3 ******** ID: 3 Health: 0 Eccentricity: 0.006367683411 Time of Applicability(s): 503808 Orbital Inclination(rad): 0.9925958246 Rate of Right Ascen(r/s): -7.737465153e-09 SQRT(A) (m 1/2): 5153.602051 Right Ascen at Week(rad): -1.410601321 Argument of Perigee(rad): 1.208643911 Mean Anom(rad): -1.290748211 Af0(s): 0.0004665244019 Af1(s/s): -1.091394e-11 week: 354 ******** Week 354 almanac for PRN-4 ******** ID: 4 Health: 0 Eccentricity: 0.003729820251 Time of Applicability(s): 503808 Orbital Inclination(rad): 0.970502906 Rate of Right Ascen(r/s): -8.023191341e-09 SQRT(A) (m 1/2): 5153.693359 Right Ascen at Week(rad): -0.3393071128 Argument of Perigee(rad): -2.905210934 Mean Anom(rad): 1.752028143 Af0(s): 3.165432129e-05 Af1(s/s): 3.637979e-12 week: 354 ******** Week 354 almanac for PRN-5 ******** ID: 5 Health: 0 Eccentricity: 0.00537443161 Time of Applicability(s): 503808 Orbital Inclination(rad): 0.979185477 Rate of Right Ascen(r/s): -7.840326581e-09 SQRT(A) (m 1/2): 5153.636719 Right Ascen at Week(rad): -1.469877169 Argument of Perigee(rad): 1.423912424 Mean Anom(rad): 2.370224273 Af0(s): -0.0001801281616 Af1(s/s): 0 week: 354 ******** Week 354 almanac for PRN-6 ******** ID: 6 Health: 0 Eccentricity: 0.003870010376 Time of Applicability(s): 503808 Orbital Inclination(rad): 0.9873886789 Rate of Right Ascen(r/s): -7.588887536e-09 SQRT(A) (m 1/2): 5153.571777 Right Ascen at Week(rad): -2.447232281 Argument of Perigee(rad): -0.6173411308 Mean Anom(rad): 0.0835764865 Af0(s): -0.0004785831909 Af1(s/s): -3.637979e-12 week: 354 ******** Week 354 almanac for PRN-7 ******** ID: 7 Health: 0 Eccentricity: 0.02022886276 Time of Applicability(s): 503808 Orbital Inclination(rad): 0.9510225484 Rate of Right Ascen(r/s): -7.806039438e-09 SQRT(A) (m 1/2): 5153.588867 Right Ascen at Week(rad): 0.6692440598 Argument of Perigee(rad): -2.003317491 Mean Anom(rad): -0.8221717579 Af0(s): -0.0001100364502 Af1(s/s): -3.637979e-12 week: 354 ******** Week 354 almanac for PRN-8 ******** ID: 8 Health: 0 Eccentricity: 0.01144599915 Time of Applicability(s): 503808 Orbital Inclination(rad): 0.9441855481 Rate of Right Ascen(r/s): -8.297488481e-09 SQRT(A) (m 1/2): 5153.610352 Right Ascen at Week(rad): 2.71768403 Argument of Perigee(rad): 0.5060073068 Mean Anom(rad): 2.024734799 Af0(s): 0.0003956790161 Af1(s/s): -3.637979e-12 week: 354 ******** Week 354 almanac for PRN-9 ******** ID: 9 Health: 0 Eccentricity: 0.003351688385 Time of Applicability(s): 503808 Orbital Inclination(rad): 0.9646066674 Rate of Right Ascen(r/s): -8.114623721e-09 SQRT(A) (m 1/2): 5153.518066 Right Ascen at Week(rad): -0.4032669212 Argument of Perigee(rad): 2.069121372 Mean Anom(rad): 2.610912076 Af0(s): 0.0006089688477 Af1(s/s): 0 week: 354 ******** Week 354 almanac for PRN-10 ******** ID: 10 Health: 0 Eccentricity: 0.0109629631 Time of Applicability(s): 503808 Orbital Inclination(rad): 0.9921464162 Rate of Right Ascen(r/s): -7.714607058e-09 SQRT(A) (m 1/2): 5153.60498 Right Ascen at Week(rad): -1.413109769 Argument of Perigee(rad): -2.264186728 Mean Anom(rad): -2.262740756 Af0(s): -0.000462002356 Af1(s/s): -3.637979e-12 week: 354 ******** Week 354 almanac for PRN-11 ******** ID: 11 Health: 0 Eccentricity: 0.002239704132 Time of Applicability(s): 503808 Orbital Inclination(rad): 0.9642351564 Rate of Right Ascen(r/s): -7.828897533e-09 SQRT(A) (m 1/2): 5153.734863 Right Ascen at Week(rad): -2.427602495 Argument of Perigee(rad): -2.24710696 Mean Anom(rad): 1.042814446 Af0(s): -0.0003662857178 Af1(s/s): 1.455192e-11 week: 354 ******** Week 354 almanac for PRN-12 ******** ID: 12 Health: 0 Eccentricity: 0.009078025818 Time of Applicability(s): 503808 Orbital Inclination(rad): 0.9588242788 Rate of Right Ascen(r/s): -7.977475151e-09 SQRT(A) (m 1/2): 5153.507324 Right Ascen at Week(rad): 1.787089491 Argument of Perigee(rad): 1.538226575 Mean Anom(rad): -1.438173277 Af0(s): -0.0004793368652 Af1(s/s): 0 week: 354 ******** Week 354 almanac for PRN-13 ******** ID: 13 Health: 0 Eccentricity: 0.00991487503 Time of Applicability(s): 503808 Orbital Inclination(rad): 0.9762253734 Rate of Right Ascen(r/s): -7.943188008e-09 SQRT(A) (m 1/2): 5153.619629 Right Ascen at Week(rad): -0.2287320402 Argument of Perigee(rad): 1.001302964 Mean Anom(rad): 1.755281486 Af0(s): 0.0005441528564 Af1(s/s): 0 week: 354 ******** Week 354 almanac for PRN-14 ******** ID: 14 Health: 0 Eccentricity: 0.006543159485 Time of Applicability(s): 503808 Orbital Inclination(rad): 0.9421721983 Rate of Right Ascen(r/s): -8.126052768e-09 SQRT(A) (m 1/2): 5153.591309 Right Ascen at Week(rad): 1.733041386 Argument of Perigee(rad): -2.762793027 Mean Anom(rad): -1.634810814 Af0(s): 0.0005773145264 Af1(s/s): 3.637979e-12 week: 354 ******** Week 354 almanac for PRN-15 ******** ID: 15 Health: 0 Eccentricity: 0.01659965515 Time of Applicability(s): 503808 Orbital Inclination(rad): 0.9423639459 Rate of Right Ascen(r/s): -8.388920861e-09 SQRT(A) (m 1/2): 5153.617188 Right Ascen at Week(rad): -0.5463566941 Argument of Perigee(rad): 1.495074002 Mean Anom(rad): 1.018697692 Af0(s): 0.0002999623779 Af1(s/s): 3.637979e-12 week: 354 ******** Week 354 almanac for PRN-16 ******** ID: 16 Health: 0 Eccentricity: 0.01504564285 Time of Applicability(s): 503808 Orbital Inclination(rad): 0.9579853831 Rate of Right Ascen(r/s): -7.988904198e-09 SQRT(A) (m 1/2): 5153.575195 Right Ascen at Week(rad): 1.804135928 Argument of Perigee(rad): 0.9239489114 Mean Anom(rad): 3.027876966 Af0(s): 0.0001529958862 Af1(s/s): 7.275958e-12 week: 354 ******** Week 354 almanac for PRN-17 ******** ID: 17 Health: 0 Eccentricity: 0.01278352737 Time of Applicability(s): 503808 Orbital Inclination(rad): 0.9599627802 Rate of Right Ascen(r/s): -8.148910863e-09 SQRT(A) (m 1/2): 5153.513184 Right Ascen at Week(rad): 2.821760282 Argument of Perigee(rad): -1.133173629 Mean Anom(rad): 1.921157015 Af0(s): -3.316166992e-05 Af1(s/s): -1.091394e-11 week: 354 ******** Week 354 almanac for PRN-18 ******** ID: 18 Health: 0 Eccentricity: 0.005702972412 Time of Applicability(s): 503808 Orbital Inclination(rad): 0.9723424845 Rate of Right Ascen(r/s): -7.726036106e-09 SQRT(A) (m 1/2): 5153.602051 Right Ascen at Week(rad): -2.451728238 Argument of Perigee(rad): -2.856067373 Mean Anom(rad): -0.06378004497 Af0(s): -0.0003504585571 Af1(s/s): 1.091394e-11 week: 354 ******** Week 354 almanac for PRN-19 ******** ID: 19 Health: 0 Eccentricity: 0.01099967957 Time of Applicability(s): 503808 Orbital Inclination(rad): 0.9591658293 Rate of Right Ascen(r/s): -8.126052768e-09 SQRT(A) (m 1/2): 5153.65332 Right Ascen at Week(rad): 2.865660745 Argument of Perigee(rad): 2.917602623 Mean Anom(rad): -2.506058347 Af0(s): 0.0005426455078 Af1(s/s): 0 week: 354 ******** Week 354 almanac for PRN-21 ******** ID: 21 Health: 0 Eccentricity: 0.0005879402161 Time of Applicability(s): 503808 Orbital Inclination(rad): 0.9620240669 Rate of Right Ascen(r/s): -8.023191341e-09 SQRT(A) (m 1/2): 5153.692383 Right Ascen at Week(rad): -1.403206679 Argument of Perigee(rad): -0.4523202263 Mean Anom(rad): -1.625053033 Af0(s): 0.0003052380981 Af1(s/s): 7.275958e-12 week: 354 ******** Week 354 almanac for PRN-22 ******** ID: 22 Health: 0 Eccentricity: 0.01219749451 Time of Applicability(s): 503808 Orbital Inclination(rad): 0.9574221245 Rate of Right Ascen(r/s): -8.000333246e-09 SQRT(A) (m 1/2): 5153.574707 Right Ascen at Week(rad): 1.807480275 Argument of Perigee(rad): -0.9971833863 Mean Anom(rad): 2.573481222 Af0(s): -4.371311035e-05 Af1(s/s): 3.637979e-12 week: 354 ******** Week 354 almanac for PRN-23 ******** ID: 23 Health: 0 Eccentricity: 0.005998134613 Time of Applicability(s): 503808 Orbital Inclination(rad): 0.9871430023 Rate of Right Ascen(r/s): -7.771752296e-09 SQRT(A) (m 1/2): 5153.653809 Right Ascen at Week(rad): -1.445031624 Argument of Perigee(rad): -2.746360782 Mean Anom(rad): -1.165238547 Af0(s): 0.0004770758423 Af1(s/s): 3.637979e-12 week: 354 ******** Week 354 almanac for PRN-24 ******** ID: 24 Health: 0 Eccentricity: 0.01783514023 Time of Applicability(s): 503808 Orbital Inclination(rad): 0.9350775372 Rate of Right Ascen(r/s): -8.046049436e-09 SQRT(A) (m 1/2): 5153.600586 Right Ascen at Week(rad): 0.5614467058 Argument of Perigee(rad): 1.130714616 Mean Anom(rad): 0.1580457111 Af0(s): -0.000119080542 Af1(s/s): 1.455192e-11 week: 354 ******** Week 354 almanac for PRN-25 ******** ID: 25 Health: 0 Eccentricity: 0.01294088364 Time of Applicability(s): 503808 Orbital Inclination(rad): 0.9471516438 Rate of Right Ascen(r/s): -8.068907531e-09 SQRT(A) (m 1/2): 5153.685547 Right Ascen at Week(rad): 1.693654856 Argument of Perigee(rad): 1.152305321 Mean Anom(rad): -1.595497313 Af0(s): 0.0003542269287 Af1(s/s): -3.637979e-12 week: 354 ******** Week 354 almanac for PRN-26 ******** ID: 26 Health: 0 Eccentricity: 0.01096963882 Time of Applicability(s): 503808 Orbital Inclination(rad): 0.9279349392 Rate of Right Ascen(r/s): -8.217485148e-09 SQRT(A) (m 1/2): 5153.63916 Right Ascen at Week(rad): 1.619804692 Argument of Perigee(rad): 0.7036646263 Mean Anom(rad): -2.42368253 Af0(s): -0.0002494661987 Af1(s/s): -7.275958e-12 week: 354 ******** Week 354 almanac for PRN-27 ******** ID: 27 Health: 0 Eccentricity: 0.01420927048 Time of Applicability(s): 503808 Orbital Inclination(rad): 0.9533055433 Rate of Right Ascen(r/s): -8.194627053e-09 SQRT(A) (m 1/2): 5153.606445 Right Ascen at Week(rad): 2.749369946 Argument of Perigee(rad): 0.8692390522 Mean Anom(rad): 2.116615978 Af0(s): -1.959553223e-05 Af1(s/s): -7.275958e-12 week: 354 ******** Week 354 almanac for PRN-28 ******** ID: 28 Health: 0 Eccentricity: 0.0003976821899 Time of Applicability(s): 503808 Orbital Inclination(rad): 0.9619881142 Rate of Right Ascen(r/s): -7.748894201e-09 SQRT(A) (m 1/2): 5153.723633 Right Ascen at Week(rad): 0.6430768793 Argument of Perigee(rad): 0.3164194903 Mean Anom(rad): -0.7737071778 Af0(s): -0.0004800905395 Af1(s/s): 7.275958e-12 week: 354 ******** Week 354 almanac for PRN-29 ******** ID: 29 Health: 0 Eccentricity: 0.003275871277 Time of Applicability(s): 503808 Orbital Inclination(rad): 0.9626053018 Rate of Right Ascen(r/s): -8.114623721e-09 SQRT(A) (m 1/2): 5153.724609 Right Ascen at Week(rad): 2.838365175 Argument of Perigee(rad): 2.747803758 Mean Anom(rad): 1.992992706 Af0(s): -0.0003067454468 Af1(s/s): 7.275958e-12 week: 354 ******** Week 354 almanac for PRN-30 ******** ID: 30 Health: 0 Eccentricity: 0.007909297943 Time of Applicability(s): 503808 Orbital Inclination(rad): 0.9362759597 Rate of Right Ascen(r/s): -7.988904198e-09 SQRT(A) (m 1/2): 5153.727539 Right Ascen at Week(rad): 0.6607963048 Argument of Perigee(rad): -2.344269438 Mean Anom(rad): -0.9381187594 Af0(s): 7.687478027e-05 Af1(s/s): 1.091394e-11 week: 354 ******** Week 354 almanac for PRN-31 ******** ID: 31 Health: 0 Eccentricity: 0.01085662842 Time of Applicability(s): 503808 Orbital Inclination(rad): 0.9547855951 Rate of Right Ascen(r/s): -7.806039438e-09 SQRT(A) (m 1/2): 5153.717285 Right Ascen at Week(rad): 0.6932956502 Argument of Perigee(rad): 0.9328876452 Mean Anom(rad): -1.894798836 Af0(s): -0.0001349077026 Af1(s/s): 3.637979e-12 week: 354 ******** Week 354 almanac for PRN-32 ******** ID: 32 Health: 0 Eccentricity: 0.009216785431 Time of Applicability(s): 503808 Orbital Inclination(rad): 0.9676806211 Rate of Right Ascen(r/s): -8.057478483e-09 SQRT(A) (m 1/2): 5153.661621 Right Ascen at Week(rad): -0.3863991246 Argument of Perigee(rad): -2.02202187 Mean Anom(rad): 2.722537266 Af0(s): -0.0001183268677 Af1(s/s): 1.818989e-11 week: 354